Weather History for La Porte, IN

Change the Weather History Date:

Tuesday, January 8, 2013

  Actual Average (KVPZ) Record (KVPZ)
Temperature  
Mean Temperature 30 °F 24 °F  
Max Temperature 36 °F 31 °F 57 °F (2008)
Min Temperature 23 °F 16 °F -5 °F (2014)
Degree Days  
Heating Degree Days 36 41  
Month to date heating degree days 328  
Since 1 July heating degree days 2730  
Cooling Degree Days 0 0  
Month to date cooling degree days 0  
Year to date cooling degree days 0  
Moisture  
Dew Point 24 °F    
Average Humidity 80    
Maximum Humidity 89    
Minimum Humidity 69    
Precipitation  
Precipitation 0.00 in 0.06 in 1.45 in (2008)
Month to date precipitation 0.44  
Year to date precipitation 0.44  
Sea Level Pressure  
Sea Level Pressure 30.16 in    
Wind  
Wind Speed 6 mph (South)    
Max Wind Speed 10 mph    
Max Gust Speed 16 mph    
Visibility 8 miles    
Events      
T = Trace of Precipitation, MM = Missing Value Source: NWS Daily Summary

Daily Weather History Graph

Daily Weather History Graph

Search for Another Location

Airport:

Trip Planner

Search our weather history database for the weather conditions in past years. The results will help you decide how hot, cold, wet, or windy it might be!

Date:

Astronomy

Jan. 08, 2013 Rise Set
Actual Time 7:13 AM CST 4:34 PM CST
Civil Twilight 6:42 AM CST 5:05 PM CST
Nautical Twilight 6:07 AM CST 5:40 PM CST
Astronomical Twilight 5:34 AM CST 6:13 PM CST
Moon 3:45 AM CST (1/8) 1:36 PM CST (1/8)
Length of Visible Light 10h 23m
Length of Day
9h 21m
Waning Crescent, 13% of the Moon is Illuminated
Jan 8
Waning Crescent
Jan 11
New
Jan 18
First Quarter
Jan 26
Full
Feb 3
Last Quarter

Hourly Weather History & Observations

Time (CST) Temp. Windchill Dew Point Humidity Pressure Visibility Wind Dir Wind Speed Gust Speed Precip Events Conditions
12:15 AM 26.6 °F 20.0 °F 21.4 °F 81% 30.15 in 10.0 mi SSW 5.8 mph - N/A   Scattered Clouds
12:35 AM 26.2 °F 19.6 °F 21.2 °F 81% 30.16 in 10.0 mi SSW 5.8 mph - N/A   Scattered Clouds
12:55 AM 25.7 °F 20.1 °F 21.2 °F 83% 30.16 in 10.0 mi SSW 4.6 mph - N/A   Clear
1:15 AM 25.2 °F 19.5 °F 21.2 °F 85% 30.16 in 10.0 mi SSW 4.6 mph - N/A   Scattered Clouds
1:35 AM 24.8 °F 19.1 °F 21.2 °F 86% 30.16 in 7.0 mi SSW 4.6 mph - N/A   Scattered Clouds
1:55 AM 24.8 °F 19.1 °F 21.4 °F 87% 30.16 in 7.0 mi SSW 4.6 mph - N/A   Scattered Clouds
2:15 AM 24.6 °F 18.8 °F 21.4 °F 87% 30.16 in 7.0 mi SSW 4.6 mph - N/A   Scattered Clouds
2:35 AM 23.9 °F 18.0 °F 21.2 °F 89% 30.15 in 7.0 mi South 4.6 mph - N/A   Clear
2:55 AM 24.4 °F 18.6 °F 21.6 °F 89% 30.15 in 7.0 mi SSW 4.6 mph - N/A   Clear
3:15 AM 24.6 °F 18.8 °F 21.7 °F 89% 30.15 in 7.0 mi SSW 4.6 mph - N/A   Clear
3:35 AM 23.9 °F 18.0 °F 21.2 °F 89% 30.15 in 7.0 mi SSW 4.6 mph - N/A   Clear
3:55 AM 24.3 °F 18.4 °F 21.6 °F 89% 30.15 in 7.0 mi SSW 4.6 mph - N/A   Scattered Clouds
4:15 AM 24.4 °F 17.5 °F 21.6 °F 89% 30.15 in 7.0 mi SSW 5.8 mph - N/A   Clear
4:35 AM 24.8 °F 19.1 °F 21.9 °F 89% 30.15 in 7.0 mi SSW 4.6 mph - N/A   Scattered Clouds
4:55 AM 24.6 °F 18.8 °F 21.6 °F 88% 30.15 in 7.0 mi SSW 4.6 mph - N/A   Scattered Clouds
5:15 AM 24.8 °F 19.1 °F 21.7 °F 88% 30.15 in 7.0 mi SSW 4.6 mph - N/A   Mostly Cloudy
5:35 AM 24.6 °F 20.3 °F 21.7 °F 89% 30.15 in 7.0 mi SSW 3.5 mph - N/A   Mostly Cloudy
6:15 AM 24.8 °F 20.5 °F 21.9 °F 89% 30.16 in 5.0 mi SSW 3.5 mph - N/A   Scattered Clouds
6:35 AM 24.6 °F - 21.7 °F 89% 30.16 in 7.0 mi Calm Calm - N/A   Mostly Cloudy
6:55 AM 24.8 °F 20.5 °F 22.1 °F 89% 30.16 in 5.0 mi South 3.5 mph - N/A   Mostly Cloudy
7:15 AM 24.8 °F - 22.1 °F 89% 30.17 in 5.0 mi Calm Calm - N/A   Scattered Clouds
7:35 AM 24.6 °F 20.3 °F 21.7 °F 89% 30.18 in 5.0 mi South 3.5 mph - N/A   Scattered Clouds
7:55 AM 25.3 °F 18.5 °F 22.1 °F 87% 30.19 in 5.0 mi South 5.8 mph - N/A   Clear
8:15 AM 26.1 °F 20.5 °F 22.6 °F 87% 30.19 in 5.0 mi South 4.6 mph - N/A   Clear
8:35 AM 27.3 °F 20.9 °F 23.0 °F 84% 30.20 in 5.0 mi South 5.8 mph - N/A   Clear
8:55 AM 28.2 °F 22.0 °F 23.5 °F 83% 30.20 in 5.0 mi South 5.8 mph - N/A   Haze
9:15 AM 28.4 °F 22.2 °F 23.7 °F 83% 30.21 in 5.0 mi South 5.8 mph - N/A   Clear
9:35 AM 28.9 °F 22.8 °F 23.9 °F 81% 30.21 in 5.0 mi South 5.8 mph - N/A   Haze
9:55 AM 29.3 °F 24.3 °F 24.4 °F 82% 30.21 in 5.0 mi South 4.6 mph - N/A   Haze
10:15 AM 30.2 °F 24.3 °F 24.8 °F 80% 30.20 in 7.0 mi South 5.8 mph - N/A   Clear
10:35 AM 31.1 °F 24.5 °F 25.3 °F 79% 30.20 in 7.0 mi South 6.9 mph - N/A   Clear
10:55 AM 31.5 °F 24.2 °F 25.2 °F 78% 30.19 in 7.0 mi South 8.1 mph - N/A   Clear
11:15 AM 32.0 °F 27.5 °F 25.2 °F 76% 30.19 in 7.0 mi South 4.6 mph - N/A   Clear
11:35 AM 32.0 °F 24.2 °F 25.2 °F 76% 30.19 in 7.0 mi South 9.2 mph - N/A   Clear
11:55 AM 32.2 °F 25.0 °F 25.2 °F 75% 30.18 in 7.0 mi SSW 8.1 mph - N/A   Clear
12:15 PM 32.9 °F 27.5 °F 25.7 °F 75% 30.17 in 7.0 mi South 5.8 mph - N/A   Clear
12:35 PM 33.3 °F 28.9 °F 25.7 °F 74% 30.16 in 7.0 mi South 4.6 mph - N/A   Clear
12:55 PM 33.8 °F 28.6 °F 25.7 °F 72% 30.16 in 7.0 mi SSE 5.8 mph - N/A   Clear
1:15 PM 34.7 °F 30.6 °F 26.2 °F 71% 30.16 in 7.0 mi South 4.6 mph - N/A   Clear
1:55 PM 36.0 °F 29.6 °F 26.8 °F 69% 30.15 in 10.0 mi South 8.1 mph - N/A   Clear
2:15 PM 35.4 °F 28.4 °F 26.2 °F 69% 30.15 in 10.0 mi South 9.2 mph - N/A   Clear
2:35 PM 34.7 °F 28.1 °F 26.4 °F 72% 30.16 in 7.0 mi South 8.1 mph - N/A   Clear
2:55 PM 34.7 °F 28.8 °F 26.6 °F 72% 30.16 in 7.0 mi South 6.9 mph - N/A   Clear
3:15 PM 34.2 °F 29.0 °F 26.4 °F 73% 30.16 in 10.0 mi South 5.8 mph - N/A   Clear
3:35 PM 34.7 °F 30.6 °F 26.2 °F 71% 30.16 in 10.0 mi South 4.6 mph - N/A   Clear
3:55 PM 34.7 °F 28.8 °F 26.2 °F 71% 30.16 in 10.0 mi South 6.9 mph - N/A   Clear
4:15 PM 34.7 °F 28.8 °F 25.7 °F 70% 30.14 in 10.0 mi SSE 6.9 mph - N/A   Clear
4:35 PM 33.8 °F 28.6 °F 25.7 °F 72% 30.14 in 10.0 mi South 5.8 mph - N/A   Clear
4:55 PM 33.8 °F 28.6 °F 25.5 °F 72% 30.14 in 10.0 mi South 5.8 mph - N/A   Clear
5:15 PM 33.3 °F 27.1 °F 25.7 °F 74% 30.15 in 10.0 mi South 6.9 mph - N/A   Clear
5:35 PM 32.4 °F 27.9 °F 25.7 °F 76% 30.14 in 10.0 mi SSE 4.6 mph - N/A   Scattered Clouds
5:55 PM 32.0 °F 26.4 °F 25.5 °F 77% 30.15 in 10.0 mi South 5.8 mph - N/A   Scattered Clouds
6:15 PM 32.0 °F 25.6 °F 25.2 °F 76% 30.14 in 10.0 mi SSE 6.9 mph - N/A   Scattered Clouds
6:35 PM 32.0 °F 25.6 °F 25.3 °F 76% 30.13 in 10.0 mi South 6.9 mph - N/A   Scattered Clouds
6:55 PM 32.0 °F 24.2 °F 25.5 °F 77% 30.13 in 10.0 mi SSE 9.2 mph - N/A   Scattered Clouds
7:15 PM 32.0 °F 23.6 °F 25.7 °F 78% 30.14 in 10.0 mi South 10.4 mph - N/A   Mostly Cloudy
7:35 PM 32.5 °F 25.5 °F 25.7 °F 76% 30.14 in 10.0 mi South 8.1 mph - N/A   Mostly Cloudy
7:55 PM 32.0 °F 24.2 °F 25.7 °F 78% 30.14 in 10.0 mi South 9.2 mph - N/A   Scattered Clouds
8:15 PM 32.0 °F 25.6 °F 25.5 °F 77% 30.14 in 10.0 mi South 6.9 mph - N/A   Scattered Clouds
8:35 PM 31.8 °F 25.4 °F 25.3 °F 77% 30.13 in 10.0 mi South 6.9 mph - N/A   Scattered Clouds
8:55 PM 32.0 °F 23.6 °F 25.5 °F 77% 30.12 in 10.0 mi South 10.4 mph - N/A   Scattered Clouds
9:35 PM 33.3 °F 25.1 °F 26.1 °F 75% 30.12 in 10.0 mi SSW 10.4 mph - N/A   Mostly Cloudy
9:55 PM 33.4 °F 25.4 °F 26.4 °F 75% 30.11 in 10.0 mi South 10.4 mph 16.1 mph N/A   Mostly Cloudy
10:15 PM 33.8 °F 25.8 °F 26.6 °F 75% 30.11 in 10.0 mi SSW 10.4 mph 16.1 mph N/A   Mostly Cloudy
10:35 PM 33.8 °F 25.8 °F 26.6 °F 75% 30.10 in 10.0 mi South 10.4 mph - N/A   Scattered Clouds
11:55 PM 34.7 °F 26.9 °F 27.3 °F 74% 30.08 in 10.0 mi SSW 10.4 mph - N/A   Clear